| time (UTC) | temp F | wind direction | speed MPH | gust MPH | rain 1hr in | rain 24hr in | rain mn in | humidity % | barometer mb |
| 20260902143515 | 76 | 360 | 5.0 | 11.0 | 0.00 | 0.06 | 0.06 | 77 | 1014.9 |
| 20260902143035 | 76 | 360 | 5.0 | 11.0 | 0.00 | 0.06 | 0.06 | 77 | 1014.9 |
| 20260902142514 | 76 | 360 | 4.0 | 11.0 | 0.00 | 0.06 | 0.06 | 77 | 1014.8 |
| 20260902142035 | 76 | 360 | 4.0 | 12.0 | 0.00 | 0.06 | 0.06 | 77 | 1014.8 |
| 20260902141515 | 76 | 357 | 4.0 | 8.0 | 0.00 | 0.06 | 0.06 | 77 | 1014.7 |
| 20260902141014 | 76 | 147 | 3.0 | 11.0 | 0.00 | 0.06 | 0.06 | 77 | 1014.8 |
| 20260902140514 | 76 | 164 | 3.0 | 8.0 | 0.00 | 0.06 | 0.06 | 78 | 1014.7 |
| 20260902140035 | 75 | 168 | 4.0 | 5.0 | 0.00 | 0.06 | 0.06 | 77 | 1014.6 |
| 20260902135515 | 75 | 170 | 3.0 | 8.0 | 0.00 | 0.06 | 0.06 | 77 | 1014.6 |
| 20260902135015 | 74 | 169 | 2.0 | 8.0 | 0.00 | 0.06 | 0.06 | 77 | 1014.6 |
| 20260902134514 | 74 | 170 | 2.0 | 7.0 | 0.00 | 0.06 | 0.06 | 77 | 1014.6 |
| 20260902134015 | 74 | 181 | 2.0 | 7.0 | 0.00 | 0.06 | 0.06 | 77 | 1014.7 |
| 20260902133514 | 74 | 177 | 3.0 | 8.0 | 0.01 | 0.06 | 0.06 | 77 | 1014.6 |
| 20260902133014 | 74 | 170 | 3.0 | 7.0 | 0.01 | 0.06 | 0.06 | 77 | 1014.6 |
| 20260902132514 | 74 | 177 | 3.0 | 7.0 | 0.01 | 0.06 | 0.06 | 77 | 1014.5 |
| 20260902132015 | 73 | 185 | 2.0 | 7.0 | 0.01 | 0.06 | 0.06 | 77 | 1014.5 |
| 20260902131514 | 73 | 204 | 1.0 | 4.0 | 0.01 | 0.06 | 0.06 | 77 | 1014.5 |
| 20260902131014 | 73 | 211 | 1.0 | 4.0 | 0.01 | 0.06 | 0.06 | 77 | 1014.3 |
| 20260902130535 | 73 | 210 | 1.0 | 4.0 | 0.01 | 0.06 | 0.06 | 77 | 1014.3 |
| 20260902130015 | 73 | 226 | 1.0 | 4.0 | 0.04 | 0.06 | 0.06 | 77 | 1014.4 |
| 20260902125514 | 73 | 244 | 2.0 | 4.0 | 0.04 | 0.06 | 0.06 | 77 | 1014.5 |
| 20260902125036 | 72 | 256 | 1.0 | 4.0 | 0.04 | 0.06 | 0.06 | 77 | 1014.4 |
| 20260902124536 | 72 | 295 | 0.0 | 3.0 | 0.04 | 0.06 | 0.06 | 77 | 1014.5 |
| 20260902124036 | 72 | 275 | 0.0 | 0.0 | 0.04 | 0.06 | 0.06 | 77 | 1014.7 |
| 20260902123514 | 71 | 276 | 0.0 | 1.0 | 0.03 | 0.05 | 0.05 | 77 | 1014.5 |
| 20260902123014 | 71 | 277 | 1.0 | 3.0 | 0.03 | 0.05 | 0.05 | 77 | 1014.4 |
| 20260902122535 | 71 | 277 | 2.0 | 5.0 | 0.03 | 0.05 | 0.05 | 77 | 1014.1 |
| 20260902122014 | 71 | 277 | 1.0 | 4.0 | 0.03 | 0.05 | 0.05 | 77 | 1014.1 |
| 20260902121514 | 71 | 277 | 0.0 | 3.0 | 0.03 | 0.05 | 0.05 | 77 | 1014.3 |
| 20260902121035 | 72 | 0 | 0.0 | 0.0 | 0.03 | 0.05 | 0.05 | 77 | 1014.2 |
| 20260902120514 | 71 | 0 | 0.0 | 0.0 | 0.03 | 0.05 | 0.05 | 77 | 1014.4 |
| 20260902120014 | 71 | 0 | 0.0 | 0.0 | 0.00 | 0.02 | 0.02 | 77 | 1014.8 |
| 20260902115514 | 71 | 0 | 0.0 | 0.0 | 0.00 | 0.02 | 0.02 | 77 | 1014.7 |
| 20260902115014 | 71 | 0 | 0.0 | 0.0 | 0.00 | 0.02 | 0.02 | 77 | 1014.6 |
| 20260902114514 | 71 | 0 | 0.0 | 0.0 | 0.00 | 0.02 | 0.02 | 75 | 1014.8 |
| 20260902114035 | 71 | 0 | 0.0 | 0.0 | 0.00 | 0.02 | 0.02 | 77 | 1014.7 |
| 20260902113535 | 71 | 0 | 0.0 | 0.0 | 0.00 | 0.02 | 0.02 | 75 | 1014.5 |
| 20260902113014 | 71 | 0 | 0.0 | 0.0 | 0.00 | 0.02 | 0.02 | 75 | 1014.5 |
| 20260902112514 | 71 | 0 | 0.0 | 0.0 | 0.00 | 0.02 | 0.02 | 75 | 1014.3 |
| 20260902112014 | 71 | 0 | 0.0 | 0.0 | 0.00 | 0.02 | 0.02 | 75 | 1014.4 |
| 20260902111515 | 71 | 279 | 0.0 | 0.0 | 0.00 | 0.02 | 0.02 | 75 | 1014.3 |
| 20260902111014 | 71 | 279 | 0.0 | 3.0 | 0.00 | 0.02 | 0.02 | 75 | 1014.2 |
| 20260902110514 | 71 | 279 | 0.0 | 3.0 | 0.00 | 0.02 | 0.02 | 75 | 1014.0 |
| 20260902110015 | 71 | 0 | 0.0 | 0.0 | 0.00 | 0.02 | 0.02 | 75 | 1014.0 |
| 20260902105535 | 71 | 0 | 0.0 | 0.0 | 0.00 | 0.02 | 0.02 | 75 | 1013.9 |
| 20260902105014 | 71 | 0 | 0.0 | 0.0 | 0.00 | 0.02 | 0.02 | 75 | 1013.8 |
| 20260902104514 | 71 | 0 | 0.0 | 0.0 | 0.00 | 0.02 | 0.02 | 75 | 1013.7 |
| 20260902104014 | 71 | 0 | 0.0 | 0.0 | 0.00 | 0.02 | 0.02 | 75 | 1013.6 |
| 20260902103514 | 71 | 0 | 0.0 | 0.0 | 0.00 | 0.02 | 0.02 | 75 | 1013.6 |
| 20260902103014 | 71 | 0 | 0.0 | 0.0 | 0.00 | 0.02 | 0.02 | 75 | 1013.5 |
| 20260902102514 | 71 | 278 | 0.0 | 0.0 | 0.00 | 0.02 | 0.02 | 75 | 1013.6 |
| 20260902102014 | 71 | 278 | 0.0 | 1.0 | 0.00 | 0.02 | 0.02 | 75 | 1013.6 |
| 20260902101514 | 71 | 278 | 0.0 | 1.0 | 0.00 | 0.02 | 0.02 | 75 | 1013.4 |
| 20260902101014 | 71 | 0 | 0.0 | 1.0 | 0.00 | 0.02 | 0.02 | 75 | 1013.5 |
| 20260902100535 | 72 | 291 | 0.0 | 0.0 | 0.00 | 0.02 | 0.02 | 75 | 1013.7 |
| 20260902100014 | 72 | 289 | 0.0 | 1.0 | 0.00 | 0.02 | 0.02 | 75 | 1013.7 |
| 20260902095514 | 72 | 289 | 0.0 | 3.0 | 0.00 | 0.02 | 0.02 | 75 | 1013.6 |
| 20260902095014 | 72 | 0 | 0.0 | 0.0 | 0.02 | 0.02 | 0.02 | 75 | 1013.6 |
| 20260902094514 | 72 | 0 | 0.0 | 0.0 | 0.02 | 0.02 | 0.02 | 75 | 1013.5 |
| 20260902094014 | 72 | 0 | 0.0 | 0.0 | 0.02 | 0.02 | 0.02 | 75 | 1013.5 |
| 20260902093514 | 72 | 0 | 0.0 | 0.0 | 0.02 | 0.02 | 0.02 | 75 | 1013.4 |
| 20260902093014 | 72 | 278 | 0.0 | 0.0 | 0.02 | 0.02 | 0.02 | 75 | 1013.3 |
| 20260902092514 | 72 | 278 | 0.0 | 3.0 | 0.02 | 0.02 | 0.02 | 75 | 1013.2 |
| 20260902092014 | 72 | 279 | 1.0 | 4.0 | 0.02 | 0.02 | 0.02 | 75 | 1013.1 |
| 20260902091514 | 73 | 279 | 1.0 | 8.0 | 0.02 | 0.02 | 0.02 | 75 | 1013.2 |
| 20260902091035 | 73 | 281 | 0.0 | 3.0 | 0.02 | 0.02 | 0.02 | 75 | 1013.2 |
| 20260902090514 | 73 | 0 | 0.0 | 0.0 | 0.02 | 0.02 | 0.02 | 75 | 1012.9 |
| 20260902090014 | 73 | 301 | 0.0 | 0.0 | 0.02 | 0.02 | 0.02 | 75 | 1013.4 |
| 20260902085514 | 73 | 294 | 2.0 | 7.0 | 0.02 | 0.02 | 0.02 | 75 | 1013.6 |
| 20260902085014 | 74 | 288 | 1.0 | 15.0 | 0.00 | 0.00 | 0.00 | 75 | 1013.8 |
| 20260902084535 | 74 | 154 | 0.0 | 3.0 | 0.00 | 0.00 | 0.00 | 75 | 1014.0 |
| 20260902084014 | 73 | 146 | 0.0 | 3.0 | 0.00 | 0.00 | 0.00 | 75 | 1013.7 |
| 20260902083514 | 73 | 145 | 0.0 | 1.0 | 0.00 | 0.00 | 0.00 | 75 | 1013.4 |
| 20260902083014 | 73 | 145 | 0.0 | 4.0 | 0.00 | 0.00 | 0.00 | 75 | 1013.1 |
| 20260902082514 | 73 | 145 | 0.0 | 3.0 | 0.00 | 0.00 | 0.00 | 75 | 1013.4 |
| 20260902082014 | 73 | 0 | 0.0 | 0.0 | 0.00 | 0.00 | 0.00 | 75 | 1013.5 |
| 20260902081535 | 73 | 0 | 0.0 | 0.0 | 0.00 | 0.00 | 0.00 | 74 | 1013.5 |
| 20260902081014 | 73 | 0 | 0.0 | 0.0 | 0.00 | 0.00 | 0.00 | 74 | 1013.7 |
| 20260902080514 | 73 | 0 | 0.0 | 0.0 | 0.00 | 0.00 | 0.00 | 74 | 1013.6 |
| 20260902080014 | 72 | 0 | 0.0 | 0.0 | 0.00 | 0.00 | 0.00 | 74 | 1013.7 |
| 20260902075535 | 72 | 0 | 0.0 | 0.0 | 0.00 | 0.00 | 0.00 | 74 | 1013.7 |
| 20260902075014 | 73 | 0 | 0.0 | 0.0 | 0.00 | 0.00 | 0.00 | 74 | 1013.6 |
| 20260902074514 | 73 | 0 | 0.0 | 0.0 | 0.00 | 0.00 | 0.00 | 74 | 1013.6 |
| 20260902074035 | 72 | 0 | 0.0 | 0.0 | 0.00 | 0.00 | 0.00 | 74 | 1013.7 |
| 20260902073535 | 72 | 0 | 0.0 | 0.0 | 0.00 | 0.00 | 0.00 | 74 | 1013.6 |
| 20260902073014 | 72 | 0 | 0.0 | 0.0 | 0.00 | 0.00 | 0.00 | 73 | 1013.7 |
| 20260902072514 | 72 | 0 | 0.0 | 0.0 | 0.00 | 0.00 | 0.00 | 73 | 1013.8 |
| 20260902072014 | 72 | 0 | 0.0 | 0.0 | 0.00 | 0.00 | 0.00 | 74 | 1013.6 |
| 20260902071514 | 72 | 0 | 0.0 | 0.0 | 0.00 | 0.00 | 0.00 | 73 | 1013.6 |
| 20260902071014 | 72 | 0 | 0.0 | 0.0 | 0.00 | 0.00 | 0.00 | 74 | 1013.7 |
| 20260902070514 | 72 | 0 | 0.0 | 0.0 | 0.00 | 0.00 | 0.00 | 74 | 1013.8 |
| 20260902070014 | 72 | 0 | 0.0 | 0.0 | 0.00 | 0.00 | 0.00 | 74 | 1013.8 |
| 20260902065514 | 72 | 0 | 0.0 | 0.0 | 0.00 | 0.00 | 0.00 | 73 | 1013.8 |
| 20260902065014 | 72 | 0 | 0.0 | 0.0 | 0.00 | 0.00 | 0.00 | 73 | 1013.9 |
| 20260902064514 | 72 | 0 | 0.0 | 0.0 | 0.00 | 0.00 | 0.00 | 73 | 1014.0 |
| 20260902064014 | 72 | 0 | 0.0 | 0.0 | 0.00 | 0.00 | 0.00 | 73 | 1013.9 |
| 20260902063514 | 73 | 0 | 0.0 | 0.0 | 0.00 | 0.00 | 0.00 | 73 | 1014.0 |
| 20260902063014 | 73 | 0 | 0.0 | 0.0 | 0.00 | 0.00 | 0.00 | 73 | 1014.0 |
| 20260902062514 | 73 | 0 | 0.0 | 0.0 | 0.00 | 0.00 | 0.00 | 74 | 1014.0 |
| 20260902062014 | 73 | 0 | 0.0 | 0.0 | 0.00 | 0.00 | 0.00 | 74 | 1014.1 |
| 20260902061514 | 73 | 0 | 0.0 | 0.0 | 0.00 | 0.00 | 0.00 | 74 | 1014.2 |
| 20260902061035 | 73 | 0 | 0.0 | 0.0 | 0.00 | 0.00 | 0.00 | 74 | 1014.2 |
| 20260902060514 | 73 | 0 | 0.0 | 0.0 | 0.00 | 0.00 | 0.00 | 74 | 1014.2 |
| 20260902060014 | 73 | 0 | 0.0 | 0.0 | 0.00 | 0.00 | 0.00 | 74 | 1014.4 |
| 20260902055514 | 73 | 0 | 0.0 | 0.0 | 0.00 | 0.00 | 0.00 | 74 | 1014.3 |
| 20260902055014 | 73 | 0 | 0.0 | 0.0 | 0.00 | 0.00 | 0.00 | 74 | 1014.3 |
| 20260902054535 | 73 | 0 | 0.0 | 0.0 | 0.00 | 0.00 | 0.00 | 74 | 1014.2 |
| 20260902054014 | 73 | 0 | 0.0 | 0.0 | 0.00 | 0.00 | 0.00 | 74 | 1014.1 |
| 20260902053514 | 73 | 0 | 0.0 | 0.0 | 0.00 | 0.00 | 0.00 | 74 | 1014.2 |
| 20260902053014 | 73 | 0 | 0.0 | 0.0 | 0.00 | 0.00 | 0.00 | 74 | 1014.3 |
| 20260902052514 | 74 | 0 | 0.0 | 0.0 | 0.00 | 0.00 | 0.00 | 74 | 1014.5 |
| 20260902052014 | 74 | 0 | 0.0 | 0.0 | 0.00 | 0.00 | 0.00 | 74 | 1014.4 |
| 20260902051514 | 74 | 0 | 0.0 | 0.0 | 0.00 | 0.00 | 0.00 | 74 | 1014.4 |
| 20260902051015 | 74 | 0 | 0.0 | 0.0 | 0.00 | 0.00 | 0.00 | 74 | 1014.3 |
| 20260902050514 | 74 | 0 | 0.0 | 0.0 | 0.00 | 0.00 | 0.00 | 74 | 1014.3 |
| 20260902050014 | 74 | 0 | 0.0 | 0.0 | 0.00 | 0.00 | 0.00 | 74 | 1014.2 |
| 20260902045514 | 74 | 0 | 0.0 | 0.0 | 0.00 | 0.00 | 0.00 | 75 | 1014.0 |
| 20260902045014 | 74 | 0 | 0.0 | 0.0 | 0.00 | 0.00 | 0.00 | 75 | 1014.1 |
| 20260902044514 | 74 | 0 | 0.0 | 0.0 | 0.00 | 0.00 | 0.00 | 75 | 1014.1 |
| 20260902044014 | 74 | 0 | 0.0 | 0.0 | 0.00 | 0.00 | 0.00 | 75 | 1014.0 |
| 20260902043514 | 74 | 0 | 0.0 | 0.0 | 0.00 | 0.00 | 0.00 | 75 | 1014.2 |
| 20260902043014 | 74 | 0 | 0.0 | 0.0 | 0.00 | 0.00 | 0.00 | 75 | 1014.2 |
| 20260902042514 | 75 | 0 | 0.0 | 0.0 | 0.00 | 0.00 | 0.00 | 75 | 1014.2 |
| 20260902042035 | 75 | 0 | 0.0 | 0.0 | 0.00 | 0.00 | 0.00 | 75 | 1014.2 |
| 20260902041514 | 75 | 0 | 0.0 | 0.0 | 0.00 | 0.00 | 0.00 | 75 | 1014.1 |
| 20260902041014 | 75 | 0 | 0.0 | 0.0 | 0.00 | 0.00 | 0.00 | 75 | 1014.0 |
| 20260902040514 | 75 | 0 | 0.0 | 0.0 | 0.00 | 0.00 | 0.00 | 75 | 1013.9 |
| 20260902040014 | 75 | 0 | 0.0 | 0.0 | 0.00 | 0.00 | 0.00 | 75 | 1014.0 |
| 20260902035514 | 75 | 0 | 0.0 | 0.0 | 0.00 | 0.00 | 0.00 | 75 | 1013.9 |
| 20260902035014 | 75 | 0 | 0.0 | 0.0 | 0.00 | 0.00 | 0.00 | 75 | 1014.0 |
| 20260902034535 | 75 | 0 | 0.0 | 0.0 | 0.00 | 0.00 | 0.00 | 75 | 1014.0 |
| 20260902034035 | 75 | 0 | 0.0 | 0.0 | 0.00 | 0.00 | 0.00 | 77 | 1014.1 |
| 20260902033535 | 76 | 0 | 0.0 | 0.0 | 0.00 | 0.00 | 0.00 | 77 | 1014.0 |
| 20260902033014 | 76 | 0 | 0.0 | 0.0 | 0.00 | 0.00 | 0.00 | 77 | 1014.0 |
| 20260902032514 | 76 | 0 | 0.0 | 0.0 | 0.00 | 0.00 | 0.00 | 77 | 1013.9 |
| 20260902032014 | 76 | 0 | 0.0 | 0.0 | 0.00 | 0.00 | 0.00 | 77 | 1014.0 |
| 20260902031535 | 76 | 0 | 0.0 | 0.0 | 0.00 | 0.00 | 0.00 | 77 | 1013.9 |
| 20260902031014 | 76 | 360 | 0.0 | 0.0 | 0.00 | 0.00 | 0.00 | 77 | 1013.9 |
| 20260902030514 | 76 | 360 | 0.0 | 1.0 | 0.00 | 0.00 | 0.00 | 78 | 1013.9 |
| 20260902030014 | 76 | 360 | 0.0 | 0.0 | 0.00 | 0.00 | 0.00 | 78 | 1013.9 |
| 20260902025514 | 76 | 360 | 0.0 | 1.0 | 0.00 | 0.00 | 0.00 | 78 | 1013.9 |
| 20260902025014 | 76 | 360 | 0.0 | 0.0 | 0.00 | 0.00 | 0.00 | 78 | 1014.0 |
| 20260902024535 | 76 | 360 | 0.0 | 1.0 | 0.00 | 0.00 | 0.00 | 78 | 1014.1 |
| 20260902024014 | 76 | 0 | 0.0 | 0.0 | 0.00 | 0.00 | 0.00 | 78 | 1014.0 |
| 20260902023514 | 77 | 0 | 0.0 | 0.0 | 0.00 | 0.00 | 0.00 | 78 | 1014.0 |
| 20260902023014 | 77 | 360 | 0.0 | 0.0 | 0.00 | 0.00 | 0.00 | 78 | 1014.1 |
| 20260902022514 | 77 | 360 | 0.0 | 1.0 | 0.00 | 0.00 | 0.00 | 79 | 1014.0 |
| 20260902022014 | 77 | 360 | 0.0 | 1.0 | 0.00 | 0.00 | 0.00 | 79 | 1013.9 |
| 20260902021514 | 77 | 360 | 0.0 | 3.0 | 0.00 | 0.00 | 0.00 | 79 | 1013.8 |
| 20260902021035 | 77 | 0 | 0.0 | 0.0 | 0.00 | 0.00 | 0.00 | 80 | 1013.9 |
| 20260902020514 | 77 | 0 | 0.0 | 0.0 | 0.00 | 0.00 | 0.00 | 80 | 1014.0 |
| 20260902020014 | 77 | 0 | 0.0 | 0.0 | 0.00 | 0.00 | 0.00 | 80 | 1013.8 |
| 20260902015535 | 77 | 0 | 0.0 | 0.0 | 0.00 | 0.00 | 0.00 | 80 | 1013.8 |
| 20260902015014 | 77 | 0 | 0.0 | 0.0 | 0.00 | 0.00 | 0.00 | 80 | 1013.8 |
| 20260902014514 | 77 | 0 | 0.0 | 0.0 | 0.00 | 0.00 | 0.00 | 80 | 1013.7 |
| 20260902014014 | 78 | 0 | 0.0 | 0.0 | 0.00 | 0.00 | 0.00 | 80 | 1013.7 |
| 20260902013535 | 78 | 0 | 0.0 | 0.0 | 0.00 | 0.00 | 0.00 | 80 | 1013.7 |
| 20260902013014 | 78 | 0 | 0.0 | 0.0 | 0.00 | 0.00 | 0.00 | 80 | 1013.7 |
| 20260902012535 | 78 | 0 | 0.0 | 0.0 | 0.00 | 0.00 | 0.00 | 80 | 1013.7 |
| 20260902012014 | 78 | 0 | 0.0 | 0.0 | 0.00 | 0.00 | 0.00 | 81 | 1013.6 |
| 20260902011514 | 78 | 0 | 0.0 | 0.0 | 0.00 | 0.00 | 0.00 | 80 | 1013.6 |
| 20260902011014 | 78 | 0 | 0.0 | 0.0 | 0.00 | 0.00 | 0.00 | 81 | 1013.5 |
| 20260902010514 | 79 | 0 | 0.0 | 0.0 | 0.00 | 0.00 | 0.00 | 81 | 1013.4 |
| 20260902010035 | 79 | 0 | 0.0 | 0.0 | 0.00 | 0.00 | 0.00 | 81 | 1013.4 |
| 20260902005514 | 79 | 0 | 0.0 | 0.0 | 0.00 | 0.00 | 0.00 | 81 | 1013.4 |
| 20260902005014 | 79 | 0 | 0.0 | 0.0 | 0.00 | 0.00 | 0.00 | 81 | 1013.3 |
| 20260902004514 | 79 | 0 | 0.0 | 0.0 | 0.00 | 0.00 | 0.00 | 81 | 1013.2 |
| 20260902004035 | 79 | 0 | 0.0 | 0.0 | 0.00 | 0.00 | 0.00 | 81 | 1013.2 |
| 20260902003535 | 80 | 0 | 0.0 | 0.0 | 0.00 | 0.00 | 0.00 | 81 | 1013.3 |
| 20260902003014 | 80 | 0 | 0.0 | 0.0 | 0.00 | 0.00 | 0.00 | 81 | 1013.2 |
| 20260902002514 | 80 | 0 | 0.0 | 0.0 | 0.00 | 0.00 | 0.00 | 81 | 1013.2 |
| 20260902002014 | 80 | 0 | 0.0 | 0.0 | 0.00 | 0.00 | 0.00 | 81 | 1013.2 |
| 20260902001514 | 80 | 0 | 0.0 | 0.0 | 0.00 | 0.00 | 0.00 | 81 | 1013.2 |
| 20260902001014 | 80 | 360 | 0.0 | 0.0 | 0.00 | 0.00 | 0.00 | 81 | 1013.2 |
| 20260902000513 | 81 | 4 | 1.0 | 1.0 | 0.00 | 0.00 | 0.00 | 81 | 1013.3 |
| 20260902000014 | 81 | 4 | 1.0 | 3.0 | 0.00 | 0.00 | 0.00 | 80 | 1013.5 |
| 20260901235514 | 81 | 20 | 1.0 | 3.0 | 0.00 | 0.00 | 0.00 | 80 | 1013.5 |
| 20260901235014 | 81 | 100 | 1.0 | 4.0 | 0.00 | 0.00 | 0.00 | 80 | 1013.5 |
| 20260901234514 | 81 | 142 | 1.0 | 5.0 | 0.00 | 0.00 | 0.00 | 80 | 1013.5 |
| 20260901234013 | 81 | 140 | 2.0 | 5.0 | 0.00 | 0.00 | 0.00 | 80 | 1013.5 |
| 20260901233514 | 81 | 138 | 2.0 | 5.0 | 0.00 | 0.00 | 0.00 | 80 | 1013.5 |
| 20260901233035 | 82 | 129 | 3.0 | 4.0 | 0.00 | 0.00 | 0.00 | 80 | 1013.5 |
| 20260901232513 | 82 | 21 | 3.0 | 5.0 | 0.00 | 0.00 | 0.00 | 80 | 1013.5 |
| 20260901232014 | 82 | 360 | 3.0 | 4.0 | 0.00 | 0.00 | 0.00 | 80 | 1013.6 |
| 20260901231514 | 83 | 360 | 2.0 | 4.0 | 0.00 | 0.00 | 0.00 | 80 | 1013.6 |
| 20260901231014 | 83 | 123 | 3.0 | 5.0 | 0.00 | 0.00 | 0.00 | 80 | 1013.7 |
| 20260901230514 | 83 | 145 | 4.0 | 9.0 | 0.00 | 0.00 | 0.00 | 79 | 1013.6 |
| 20260901230014 | 83 | 156 | 4.0 | 9.0 | 0.00 | 0.00 | 0.00 | 79 | 1013.6 |
| 20260901225514 | 83 | 155 | 3.0 | 7.0 | 0.00 | 0.00 | 0.00 | 79 | 1013.6 |
| 20260901225014 | 83 | 153 | 2.0 | 8.0 | 0.00 | 0.00 | 0.00 | 79 | 1013.5 |
| 20260901224535 | 83 | 145 | 1.0 | 7.0 | 0.00 | 0.00 | 0.00 | 79 | 1013.5 |
| 20260901224014 | 84 | 161 | 0.0 | 0.0 | 0.00 | 0.00 | 0.00 | 79 | 1013.5 |
| 20260901223513 | 84 | 161 | 2.0 | 5.0 | 0.00 | 0.00 | 0.00 | 78 | 1013.5 |
| 20260901223014 | 84 | 161 | 5.0 | 8.0 | 0.00 | 0.00 | 0.00 | 78 | 1013.5 |
| 20260901222513 | 84 | 161 | 4.0 | 8.0 | 0.00 | 0.00 | 0.00 | 78 | 1013.4 |
| 20260901222014 | 85 | 154 | 4.0 | 8.0 | 0.00 | 0.00 | 0.00 | 77 | 1013.5 |
| 20260901221514 | 85 | 153 | 5.0 | 9.0 | 0.00 | 0.00 | 0.00 | 75 | 1013.5 |
| 20260901221034 | 86 | 156 | 5.0 | 8.0 | 0.00 | 0.00 | 0.00 | 74 | 1013.4 |
| 20260901220513 | 87 | 158 | 4.0 | 8.0 | 0.00 | 0.00 | 0.00 | 74 | 1013.5 |
| 20260901220013 | 88 | 173 | 4.0 | 9.0 | 0.00 | 0.00 | 0.00 | 72 | 1013.5 |
| 20260901215514 | 89 | 185 | 2.0 | 8.0 | 0.00 | 0.00 | 0.00 | 70 | 1013.6 |
| 20260901215014 | 90 | 181 | 1.0 | 7.0 | 0.00 | 0.00 | 0.00 | 66 | 1013.6 |
| 20260901214535 | 90 | 173 | 0.0 | 0.0 | 0.00 | 0.00 | 0.00 | 63 | 1013.5 |
| 20260901214013 | 90 | 275 | 1.0 | 7.0 | 0.00 | 0.00 | 0.00 | 63 | 1013.5 |
| 20260901213513 | 90 | 290 | 1.0 | 9.0 | 0.00 | 0.00 | 0.00 | 63 | 1013.4 |
| 20260901213013 | 90 | 288 | 0.0 | 1.0 | 0.00 | 0.00 | 0.00 | 64 | 1013.4 |
| 20260901212513 | 90 | 288 | 0.0 | 5.0 | 0.00 | 0.00 | 0.00 | 62 | 1013.5 |
| 20260901212013 | 90 | 0 | 0.0 | 0.0 | 0.00 | 0.00 | 0.00 | 62 | 1013.4 |
| 20260901211513 | 91 | 0 | 0.0 | 0.0 | 0.00 | 0.00 | 0.00 | 62 | 1013.5 |
| 20260901211013 | 91 | 286 | 0.0 | 0.0 | 0.00 | 0.00 | 0.00 | 61 | 1013.4 |
| 20260901210513 | 91 | 285 | 0.0 | 5.0 | 0.00 | 0.00 | 0.00 | 60 | 1013.4 |
| 20260901210013 | 91 | 254 | 0.0 | 3.0 | 0.00 | 0.00 | 0.00 | 60 | 1013.4 |
| 20260901205513 | 91 | 0 | 0.0 | 0.0 | 0.00 | 0.00 | 0.00 | 57 | 1013.4 |
| 20260901205014 | 92 | 0 | 0.0 | 0.0 | 0.00 | 0.00 | 0.00 | 56 | 1013.3 |
| 20260901204513 | 92 | 0 | 0.0 | 0.0 | 0.00 | 0.00 | 0.00 | 53 | 1013.4 |
| 20260901204013 | 91 | 0 | 0.0 | 0.0 | 0.00 | 0.00 | 0.00 | 57 | 1013.3 |
| 20260901203513 | 91 | 304 | 0.0 | 0.0 | 0.00 | 0.00 | 0.00 | 56 | 1013.3 |
| 20260901203013 | 91 | 304 | 0.0 | 1.0 | 0.00 | 0.00 | 0.00 | 58 | 1013.4 |
| 20260901202513 | 91 | 0 | 0.0 | 0.0 | 0.00 | 0.00 | 0.00 | 60 | 1013.5 |
| 20260901202013 | 91 | 302 | 0.0 | 0.0 | 0.00 | 0.00 | 0.00 | 58 | 1013.4 |
| 20260901201513 | 91 | 302 | 0.0 | 4.0 | 0.00 | 0.00 | 0.00 | 57 | 1013.5 |
| 20260901201034 | 91 | 0 | 0.0 | 0.0 | 0.00 | 0.00 | 0.00 | 56 | 1013.4 |
| 20260901200513 | 91 | 0 | 0.0 | 0.0 | 0.00 | 0.00 | 0.00 | 55 | 1013.5 |
| 20260901200013 | 91 | 298 | 1.0 | 0.0 | 0.00 | 0.00 | 0.00 | 56 | 1013.6 |
| 20260901195534 | 91 | 299 | 1.0 | 5.0 | 0.00 | 0.00 | 0.00 | 57 | 1013.4 |
| 20260901195013 | 91 | 304 | 0.0 | 5.0 | 0.00 | 0.00 | 0.00 | 57 | 1013.4 |
| 20260901194513 | 91 | 306 | 0.0 | 0.0 | 0.00 | 0.00 | 0.00 | 59 | 1013.5 |
| 20260901194013 | 91 | 305 | 1.0 | 4.0 | 0.00 | 0.01 | 0.00 | 59 | 1013.5 |
| 20260901193513 | 91 | 304 | 1.0 | 4.0 | 0.00 | 0.01 | 0.00 | 56 | 1013.6 |
| 20260901193013 | 91 | 314 | 1.0 | 4.0 | 0.00 | 0.01 | 0.00 | 57 | 1013.5 |
| 20260901192513 | 91 | 326 | 1.0 | 5.0 | 0.00 | 0.01 | 0.00 | 56 | 1013.6 |
| 20260901192034 | 91 | 322 | 1.0 | 4.0 | 0.00 | 0.01 | 0.00 | 58 | 1013.6 |
| 20260901191513 | 91 | 310 | 1.0 | 7.0 | 0.00 | 0.01 | 0.00 | 59 | 1013.6 |
| 20260901191013 | 91 | 304 | 1.0 | 4.0 | 0.00 | 0.01 | 0.00 | 57 | 1013.7 |
| 20260901190513 | 91 | 289 | 1.0 | 4.0 | 0.00 | 0.01 | 0.00 | 58 | 1013.7 |
| 20260901190013 | 91 | 280 | 1.0 | 9.0 | 0.00 | 0.01 | 0.00 | 58 | 1013.7 |
| 20260901185513 | 90 | 284 | 1.0 | 9.0 | 0.00 | 0.01 | 0.00 | 57 | 1013.8 |
| 20260901185013 | 90 | 308 | 2.0 | 5.0 | 0.00 | 0.01 | 0.00 | 59 | 1013.8 |
| 20260901184513 | 90 | 320 | 2.0 | 7.0 | 0.00 | 0.01 | 0.00 | 57 | 1013.8 |
| 20260901184034 | 90 | 329 | 2.0 | 8.0 | 0.00 | 0.01 | 0.00 | 57 | 1014.0 |
| 20260901183513 | 90 | 328 | 1.0 | 7.0 | 0.00 | 0.01 | 0.00 | 57 | 1014.0 |
| 20260901183013 | 90 | 317 | 2.0 | 4.0 | 0.00 | 0.01 | 0.00 | 58 | 1014.0 |
| 20260901182513 | 90 | 306 | 3.0 | 9.0 | 0.00 | 0.01 | 0.00 | 57 | 1014.0 |
| 20260901182013 | 90 | 288 | 1.0 | 12.0 | 0.00 | 0.01 | 0.00 | 57 | 1014.0 |
| 20260901181513 | 90 | 303 | 1.0 | 8.0 | 0.00 | 0.01 | 0.00 | 58 | 1014.0 |
| 20260901181035 | 90 | 292 | 2.0 | 7.0 | 0.00 | 0.01 | 0.00 | 58 | 1014.1 |
| 20260901180534 | 90 | 279 | 2.0 | 9.0 | 0.00 | 0.01 | 0.00 | 59 | 1014.0 |
| 20260901180013 | 90 | 273 | 1.0 | 3.0 | 0.00 | 0.01 | 0.00 | 61 | 1014.1 |
| 20260901175513 | 89 | 258 | 2.0 | 8.0 | 0.00 | 0.01 | 0.00 | 60 | 1014.0 |
| 20260901175013 | 89 | 249 | 1.0 | 9.0 | 0.00 | 0.01 | 0.00 | 63 | 1014.0 |
| 20260901174513 | 88 | 288 | 2.0 | 4.0 | 0.00 | 0.01 | 0.00 | 62 | 1013.9 |
| 20260901174017 | 88 | 292 | 2.0 | 8.0 | 0.00 | 0.01 | 0.00 | 61 | 1014.0 |
| 20260901173513 | 88 | 300 | 2.0 | 7.0 | 0.00 | 0.01 | 0.00 | 61 | 1014.1 |
| 20260901173013 | 88 | 301 | 2.0 | 11.0 | 0.00 | 0.01 | 0.00 | 61 | 1014.1 |
| 20260901172513 | 88 | 262 | 2.0 | 4.0 | 0.00 | 0.01 | 0.00 | 62 | 1014.0 |
| 20260901172013 | 88 | 265 | 3.0 | 11.0 | 0.00 | 0.01 | 0.00 | 63 | 1014.1 |
| 20260901171513 | 87 | 281 | 2.0 | 12.0 | 0.00 | 0.01 | 0.00 | 63 | 1014.1 |
| 20260901171013 | 87 | 292 | 2.0 | 7.0 | 0.00 | 0.01 | 0.00 | 62 | 1014.1 |
| 20260901170513 | 87 | 290 | 2.0 | 5.0 | 0.00 | 0.01 | 0.00 | 62 | 1014.1 |
| 20260901170013 | 87 | 286 | 2.0 | 9.0 | 0.00 | 0.01 | 0.00 | 60 | 1014.2 |
| 20260901165513 | 88 | 293 | 2.0 | 8.0 | 0.00 | 0.01 | 0.00 | 61 | 1014.2 |
| 20260901165013 | 88 | 288 | 3.0 | 9.0 | 0.00 | 0.01 | 0.00 | 60 | 1014.4 |
| 20260901164513 | 88 | 288 | 3.0 | 12.0 | 0.00 | 0.01 | 0.00 | 60 | 1014.4 |
| 20260901164014 | 88 | 299 | 3.0 | 11.0 | 0.00 | 0.01 | 0.00 | 61 | 1014.3 |
| 20260901163513 | 88 | 298 | 3.0 | 8.0 | 0.00 | 0.02 | 0.00 | 61 | 1014.4 |
| 20260901163014 | 87 | 271 | 3.0 | 12.0 | 0.00 | 0.02 | 0.00 | 62 | 1014.5 |
| 20260901162513 | 87 | 263 | 3.0 | 9.0 | 0.00 | 0.02 | 0.00 | 61 | 1014.4 |
| 20260901162034 | 87 | 289 | 2.0 | 11.0 | 0.00 | 0.02 | 0.00 | 61 | 1014.5 |
| 20260901161513 | 87 | 282 | 2.0 | 7.0 | 0.00 | 0.02 | 0.00 | 61 | 1014.5 |
| 20260901161013 | 87 | 273 | 3.0 | 5.0 | 0.00 | 0.02 | 0.00 | 62 | 1014.5 |
| 20260901160513 | 86 | 287 | 3.0 | 11.0 | 0.00 | 0.02 | 0.00 | 61 | 1014.5 |
| 20260901160013 | 86 | 302 | 3.0 | 11.0 | 0.00 | 0.03 | 0.00 | 62 | 1014.4 |
| 20260901155513 | 86 | 302 | 3.0 | 9.0 | 0.00 | 0.06 | 0.00 | 62 | 1014.5 |
| 20260901155013 | 86 | 300 | 3.0 | 9.0 | 0.00 | 0.06 | 0.00 | 62 | 1014.4 |
| 20260901154513 | 85 | 306 | 3.0 | 7.0 | 0.00 | 0.06 | 0.00 | 62 | 1014.4 |
| 20260901154013 | 85 | 297 | 3.0 | 7.0 | 0.00 | 0.07 | 0.00 | 61 | 1014.5 |
| 20260901153513 | 85 | 286 | 2.0 | 11.0 | 0.00 | 0.09 | 0.00 | 61 | 1014.4 |
| 20260901153013 | 85 | 298 | 2.0 | 8.0 | 0.00 | 0.09 | 0.00 | 63 | 1014.6 |
| 20260901152513 | 85 | 301 | 3.0 | 9.0 | 0.00 | 0.09 | 0.00 | 62 | 1014.5 |
| 20260901152013 | 85 | 296 | 2.0 | 8.0 | 0.00 | 0.09 | 0.00 | 62 | 1014.5 |
| 20260901151534 | 84 | 293 | 1.0 | 4.0 | 0.00 | 0.09 | 0.00 | 63 | 1014.4 |
| 20260901151013 | 84 | 289 | 0.0 | 4.0 | 0.00 | 0.09 | 0.00 | 63 | 1014.5 |
| 20260901150513 | 84 | 305 | 1.0 | 4.0 | 0.00 | 0.09 | 0.00 | 63 | 1014.4 |
| 20260901150013 | 83 | 307 | 2.0 | 9.0 | 0.00 | 0.09 | 0.00 | 41 | 1014.4 |
| 20260901145513 | 83 | 303 | 2.0 | 8.0 | 0.00 | 0.09 | 0.00 | 63 | 1014.4 |
| 20260901145034 | 83 | 304 | 2.0 | 9.0 | 0.00 | 0.09 | 0.00 | 63 | 1014.4 |
| 20260901144513 | 82 | 318 | 2.0 | 7.0 | 0.00 | 0.09 | 0.00 | 64 | 1014.3 |
| 20260901144013 | 82 | 325 | 2.0 | 5.0 | 0.00 | 0.09 | 0.00 | 64 | 1014.3 |